EAG5504 SBEG-SBFZ

Flight info

Callsign EAG5504
Flight time N/A
Altitude 35000
Route XOLOK DCT PUDVO UZ12 ANGUB/N0451F370 UZ12 ESDAB DCT FLZ
Aircraft B738/M-SDE2E3FGHIRWXY/LB1

Departure

Time 2026-05-07 21:09
Airport Eduardo Gomes International Airport (SBEG)

Arrival

Time N/A
Airport Pinto Martins International Airport (SBFZ)
Time Latitude Longitude Altitude Speed Heading
2026-05-07 20:44 -3.03265 -60.04620 272 ft 0 kts
2026-05-07 21:00 -3.03266 -60.04620 272 ft 2 kts
2026-05-07 21:00 -3.03291 -60.04623 272 ft 4 kts
2026-05-07 21:00 -3.03318 -60.04625 272 ft 4 kts 358°
2026-05-07 21:01 -3.03343 -60.04620 272 ft 4 kts 324°
2026-05-07 21:01 -3.03355 -60.04602 272 ft 3 kts 271°
2026-05-07 21:01 -3.03356 -60.04599 272 ft 0 kts 269°
2026-05-07 21:04 -3.03356 -60.04604 272 ft 4 kts 269°
2026-05-07 21:04 -3.03356 -60.04640 272 ft 11 kts 270°
2026-05-07 21:04 -3.03344 -60.04737 272 ft 10 kts 278°
2026-05-07 21:05 -3.03338 -60.04783 272 ft 10 kts 273°
2026-05-07 21:05 -3.03374 -60.04835 272 ft 10 kts 206°
2026-05-07 21:05 -3.03453 -60.04868 272 ft 10 kts 208°
2026-05-07 21:05 -3.03517 -60.04913 272 ft 13 kts 220°
2026-05-07 21:06 -3.03559 -60.04967 272 ft 16 kts 241°
2026-05-07 21:06 -3.03605 -60.05093 272 ft 23 kts 255°
2026-05-07 21:06 -3.03645 -60.05247 272 ft 22 kts 254°
2026-05-07 21:06 -3.03682 -60.05395 272 ft 21 kts 259°
2026-05-07 21:07 -3.03689 -60.05541 272 ft 21 kts 269°
2026-05-07 21:07 -3.03691 -60.05681 272 ft 20 kts 270°
2026-05-07 21:07 -3.03691 -60.05815 272 ft 19 kts 270°
2026-05-07 21:07 -3.03691 -60.05942 272 ft 18 kts 270°
2026-05-07 21:08 -3.03691 -60.06062 272 ft 17 kts 270°
2026-05-07 21:08 -3.03732 -60.06161 272 ft 16 kts 210°
2026-05-07 21:08 -3.03828 -60.06171 272 ft 12 kts 163°
2026-05-07 21:08 -3.03858 -60.06092 272 ft 18 kts 91°
2026-05-07 21:09 -3.03860 -60.05827 272 ft 68 kts 89°
2026-05-07 21:09 -3.03859 -60.05153 272 ft 127 kts 90°
2026-05-07 21:09 -3.03863 -60.04093 354 ft 170 kts 91°
2026-05-07 21:09 -3.03902 -60.02857 897 ft 183 kts 92°
2026-05-07 21:10 -3.03915 -60.01600 1817 ft 177 kts 90°
2026-05-07 21:10 -3.03928 -60.00337 2459 ft 190 kts 91°
2026-05-07 21:10 -3.03972 -59.98934 2824 ft 214 kts 92°
2026-05-07 21:10 -3.04023 -59.97359 3164 ft 236 kts 91°
2026-05-07 21:11 -3.04079 -59.95657 3668 ft 254 kts 91°
2026-05-07 21:11 -3.04137 -59.93852 4399 ft 263 kts 91°
2026-05-07 21:11 -3.04255 -59.90157 6129 ft 270 kts 91°
2026-05-07 21:12 -3.04316 -59.88258 6951 ft 275 kts 91°
2026-05-07 21:12 -3.04378 -59.86332 7757 ft 279 kts 91°
2026-05-07 21:12 -3.04439 -59.84378 8555 ft 283 kts 91°
2026-05-07 21:12 -3.04503 -59.82394 9335 ft 287 kts 90°
2026-05-07 21:13 -3.04567 -59.80387 10102 ft 291 kts 90°
2026-05-07 21:13 -3.04631 -59.78344 10778 ft 298 kts 91°
2026-05-07 21:13 -3.04699 -59.76227 11265 ft 312 kts 90°
2026-05-07 21:13 -3.04770 -59.73990 11582 ft 330 kts 91°
2026-05-07 21:14 -3.04844 -59.71666 11871 ft 347 kts 91°
2026-05-07 21:14 -3.04930 -59.69196 12115 ft 363 kts 91°
2026-05-07 21:14 -3.05022 -59.66620 12344 ft 379 kts 91°
2026-05-07 21:14 -3.05114 -59.63942 12670 ft 389 kts 91°
2026-05-07 21:15 -3.05211 -59.61208 13181 ft 394 kts 91°
2026-05-07 21:15 -3.05307 -59.58456 13742 ft 396 kts 91°
2026-05-07 21:15 -3.05403 -59.55694 14275 ft 399 kts 91°
2026-05-07 21:15 -3.05500 -59.52914 14790 ft 401 kts 91°
2026-05-07 21:16 -3.05598 -59.50118 15266 ft 404 kts 91°
2026-05-07 21:16 -3.05696 -59.47287 15729 ft 407 kts 91°
2026-05-07 21:16 -3.05793 -59.44486 16167 ft 410 kts 92°
2026-05-07 21:16 -3.05893 -59.41622 16596 ft 413 kts 92°
2026-05-07 21:17 -3.05993 -59.38739 17009 ft 416 kts 92°
2026-05-07 21:17 -3.06095 -59.35845 17406 ft 418 kts 92°
2026-05-07 21:17 -3.06198 -59.32924 17789 ft 421 kts 92°
2026-05-07 21:17 -3.06302 -59.29984 18157 ft 424 kts 92°
2026-05-07 21:18 -3.06405 -59.27031 18513 ft 426 kts 92°
2026-05-07 21:18 -3.06509 -59.24063 18855 ft 429 kts 92°
2026-05-07 21:18 -3.06613 -59.21071 19184 ft 431 kts 92°
2026-05-07 21:18 -3.06718 -59.18056 19504 ft 434 kts 92°
2026-05-07 21:19 -3.06823 -59.15037 19806 ft 436 kts 92°
2026-05-07 21:19 -3.06928 -59.11992 20099 ft 439 kts 92°
2026-05-07 21:19 -3.07034 -59.08937 20384 ft 441 kts 92°
2026-05-07 21:19 -3.07141 -59.05868 20659 ft 443 kts 92°
2026-05-07 21:20 -3.07248 -59.02772 20926 ft 446 kts 92°
2026-05-07 21:20 -3.07355 -58.99658 21185 ft 448 kts 92°
2026-05-07 21:20 -3.07463 -58.96533 21437 ft 450 kts 93°
2026-05-07 21:20 -3.07571 -58.93396 21679 ft 452 kts 93°
2026-05-07 21:21 -3.07679 -58.90287 21911 ft 454 kts 93°
2026-05-07 21:21 -3.07788 -58.87111 22140 ft 456 kts 93°
2026-05-07 21:21 -3.07898 -58.83920 22363 ft 458 kts 93°
2026-05-07 21:21 -3.08008 -58.80725 22578 ft 460 kts 93°
2026-05-07 21:22 -3.08118 -58.77519 22786 ft 462 kts 93°
2026-05-07 21:22 -3.08229 -58.74287 22989 ft 464 kts 93°
2026-05-07 21:22 -3.08338 -58.71096 23183 ft 466 kts 93°
2026-05-07 21:22 -3.08450 -58.67850 23375 ft 468 kts 93°
2026-05-07 21:23 -3.08563 -58.64596 23561 ft 469 kts 93°
2026-05-07 21:23 -3.08676 -58.61309 23742 ft 471 kts 93°
2026-05-07 21:23 -3.08788 -58.58025 23917 ft 472 kts 93°
2026-05-07 21:23 -3.08900 -58.54733 24086 ft 474 kts 93°
2026-05-07 21:24 -3.09012 -58.51425 24252 ft 476 kts 93°
2026-05-07 21:24 -3.09123 -58.48153 24411 ft 477 kts 93°
2026-05-07 21:24 -3.09237 -58.44790 24568 ft 478 kts 93°
2026-05-07 21:24 -3.09349 -58.41497 24717 ft 480 kts 93°
2026-05-07 21:25 -3.09462 -58.38153 24863 ft 481 kts 93°
2026-05-07 21:25 -3.09579 -58.34808 25005 ft 482 kts 93°
2026-05-07 21:25 -3.09731 -58.31440 25146 ft 484 kts 94°
2026-05-07 21:25 -3.09886 -58.28071 25283 ft 485 kts 94°
2026-05-07 21:26 -3.10040 -58.24698 25416 ft 486 kts 94°
2026-05-07 21:26 -3.10193 -58.21318 25545 ft 487 kts 94°
2026-05-07 21:26 -3.10345 -58.17929 25671 ft 488 kts 94°
2026-05-07 21:26 -3.10498 -58.14538 25793 ft 490 kts 94°
2026-05-07 21:27 -3.10651 -58.11120 25914 ft 491 kts 94°
2026-05-07 21:27 -3.10803 -58.07709 26030 ft 492 kts 94°
2026-05-07 21:27 -3.10956 -58.04282 26145 ft 493 kts 94°
2026-05-07 21:27 -3.11109 -58.00853 26257 ft 494 kts 94°
2026-05-07 21:28 -3.11265 -57.97411 26366 ft 495 kts 94°
2026-05-07 21:28 -3.11418 -57.94015 26471 ft 496 kts 94°
2026-05-07 21:28 -3.11573 -57.90569 26567 ft 497 kts 94°
2026-05-07 21:28 -3.11728 -57.87101 26705 ft 497 kts 94°
2026-05-07 21:29 -3.11883 -57.83635 26863 ft 497 kts 94°
2026-05-07 21:29 -3.12036 -57.80186 27007 ft 497 kts 94°
2026-05-07 21:29 -3.12190 -57.76725 27156 ft 497 kts 94°
2026-05-07 21:29 -3.12344 -57.73262 27302 ft 497 kts 94°
2026-05-07 21:30 -3.12496 -57.69861 27453 ft 497 kts 94°
2026-05-07 21:30 -3.12649 -57.66398 27606 ft 497 kts 94°
2026-05-07 21:30 -3.12803 -57.62935 27764 ft 497 kts 94°
2026-05-07 21:30 -3.12956 -57.59480 27920 ft 497 kts 94°
2026-05-07 21:31 -3.13109 -57.56020 28078 ft 497 kts 94°
2026-05-07 21:31 -3.13262 -57.52568 28242 ft 497 kts 94°
2026-05-07 21:31 -3.13414 -57.49153 28431 ft 496 kts 93°
2026-05-07 21:31 -3.13566 -57.45705 28583 ft 497 kts 93°
2026-05-07 21:32 -3.13718 -57.42249 28750 ft 496 kts 93°
2026-05-07 21:32 -3.13870 -57.38806 28939 ft 496 kts 93°
2026-05-07 21:32 -3.14023 -57.35342 29106 ft 496 kts 93°
2026-05-07 21:32 -3.14174 -57.31904 29280 ft 496 kts 93°
2026-05-07 21:33 -3.14326 -57.28452 29450 ft 496 kts 93°
2026-05-07 21:33 -3.14478 -57.25005 29625 ft 496 kts 93°
2026-05-07 21:33 -3.14629 -57.21563 29800 ft 496 kts 93°
2026-05-07 21:33 -3.14781 -57.18114 29977 ft 496 kts 93°
2026-05-07 21:34 -3.14932 -57.14664 30170 ft 495 kts 93°
2026-05-07 21:34 -3.15081 -57.11260 30343 ft 495 kts 93°
2026-05-07 21:34 -3.15232 -57.07819 30525 ft 495 kts 93°
2026-05-07 21:34 -3.15383 -57.04372 30700 ft 495 kts 93°
2026-05-07 21:35 -3.15534 -57.00930 30884 ft 495 kts 93°
2026-05-07 21:35 -3.15684 -56.97494 31066 ft 495 kts 93°
2026-05-07 21:35 -3.15834 -56.94049 31255 ft 495 kts 93°
2026-05-07 21:35 -3.15985 -56.90610 31452 ft 494 kts 93°
2026-05-07 21:36 -3.16135 -56.87172 31636 ft 494 kts 93°
2026-05-07 21:36 -3.16284 -56.83738 31827 ft 494 kts 93°
2026-05-07 21:36 -3.16434 -56.80305 32008 ft 494 kts 93°
2026-05-07 21:36 -3.16583 -56.76872 32220 ft 493 kts 93°
2026-05-07 21:37 -3.16733 -56.73434 32421 ft 493 kts 93°
2026-05-07 21:37 -3.16881 -56.70013 32637 ft 492 kts 93°
2026-05-07 21:37 -3.17030 -56.66587 32850 ft 492 kts 93°
2026-05-07 21:37 -3.17171 -56.63338 33039 ft 492 kts 93°
2026-05-07 21:38 -3.17319 -56.59922 33249 ft 491 kts 93°
2026-05-07 21:38 -3.17468 -56.56499 33443 ft 491 kts 93°
2026-05-07 21:38 -3.17615 -56.53090 33656 ft 490 kts 93°
2026-05-07 21:38 -3.17763 -56.49681 33864 ft 490 kts 93°
2026-05-07 21:39 -3.17910 -56.46282 34081 ft 489 kts 93°
2026-05-07 21:39 -3.18055 -56.42917 34288 ft 489 kts 93°
2026-05-07 21:39 -3.18201 -56.39525 34491 ft 488 kts 93°
2026-05-07 21:39 -3.18348 -56.36131 34696 ft 488 kts 93°
2026-05-07 21:40 -3.18495 -56.32719 34886 ft 488 kts 93°
2026-05-07 21:40 -3.18641 -56.29338 35097 ft 487 kts 93°
2026-05-07 21:40 -3.18787 -56.25946 35301 ft 487 kts 93°
2026-05-07 21:40 -3.18932 -56.22564 35517 ft 486 kts 93°
2026-05-07 21:41 -3.19077 -56.19185 35722 ft 486 kts 93°
2026-05-07 21:41 -3.19222 -56.15810 35923 ft 485 kts 93°
2026-05-07 21:41 -3.19367 -56.12431 36126 ft 485 kts 93°
2026-05-07 21:41 -3.19510 -56.09100 36340 ft 484 kts 93°
2026-05-07 21:42 -3.19654 -56.05728 36559 ft 484 kts 93°
2026-05-07 21:42 -3.19798 -56.02367 36759 ft 483 kts 93°
2026-05-07 21:42 -3.20086 -55.95632 36847 ft 485 kts 93°
2026-05-07 21:43 -3.20374 -55.88895 36856 ft 483 kts 93°
2026-05-07 21:43 -3.20660 -55.82176 36858 ft 484 kts 93°
2026-05-07 21:44 -3.20945 -55.75477 36859 ft 484 kts 93°
2026-05-07 21:44 -3.21231 -55.68743 36859 ft 484 kts 93°
2026-05-07 21:45 -3.21517 -55.62003 36861 ft 485 kts 93°
2026-05-07 21:45 -3.21803 -55.55245 36861 ft 485 kts 93°
2026-05-07 21:46 -3.22086 -55.48555 36862 ft 485 kts 93°
2026-05-07 21:46 -3.22372 -55.41794 36863 ft 485 kts 93°
2026-05-07 21:47 -3.22657 -55.35041 36864 ft 485 kts 93°
2026-05-07 21:47 -3.22941 -55.28289 36864 ft 486 kts 93°
2026-05-07 21:48 -3.23223 -55.21577 36865 ft 486 kts 93°
2026-05-07 21:48 -3.23507 -55.14811 36867 ft 486 kts 93°
2026-05-07 21:49 -3.23790 -55.08051 36868 ft 486 kts 93°
2026-05-07 21:49 -3.24074 -55.01269 36868 ft 486 kts 93°
2026-05-07 21:50 -3.24356 -54.94509 36858 ft 485 kts 93°
2026-05-07 21:50 -3.24635 -54.87811 36848 ft 483 kts 93°
2026-05-07 21:51 -3.24915 -54.81086 36847 ft 484 kts 93°
2026-05-07 21:51 -3.25196 -54.74337 36847 ft 484 kts 93°
2026-05-07 21:52 -3.25474 -54.67626 36847 ft 486 kts 93°
2026-05-07 21:52 -3.25709 -54.61953 36847 ft 488 kts 93°
2026-05-07 21:53 -3.26036 -54.54059 36847 ft 487 kts 93°
2026-05-07 21:53 -3.26269 -54.48424 36847 ft 487 kts 93°
2026-05-07 21:54 -3.26548 -54.41639 36846 ft 488 kts 93°
2026-05-07 21:54 -3.26828 -54.34846 36847 ft 488 kts 93°
2026-05-07 21:55 -3.27107 -54.28070 36847 ft 488 kts 93°
2026-05-07 21:55 -3.27384 -54.21315 36847 ft 488 kts 93°
2026-05-07 21:56 -3.27662 -54.14520 36847 ft 488 kts 93°
2026-05-07 21:56 -3.27939 -54.07741 36847 ft 487 kts 93°
2026-05-07 21:57 -3.28216 -54.00970 36847 ft 487 kts 93°
2026-05-07 21:57 -3.28492 -53.94192 36847 ft 487 kts 93°
2026-05-07 21:58 -3.28766 -53.87460 36847 ft 487 kts 93°
2026-05-07 21:58 -3.29042 -53.80673 36847 ft 487 kts 93°
2026-05-07 21:59 -3.29317 -53.73885 36847 ft 487 kts 93°
2026-05-07 21:59 -3.29590 -53.67144 36847 ft 487 kts 93°
2026-05-07 22:00 -3.29864 -53.60370 36847 ft 487 kts 93°
2026-05-07 22:00 -3.30138 -53.53584 36848 ft 488 kts 93°
2026-05-07 22:01 -3.30411 -53.46798 36847 ft 488 kts 93°
2026-05-07 22:01 -3.30684 -53.40016 36848 ft 487 kts 93°
2026-05-07 22:02 -3.30956 -53.33236 36848 ft 487 kts 93°
2026-05-07 22:02 -3.31228 -53.26451 36847 ft 487 kts 93°
2026-05-07 22:03 -3.31498 -53.19704 36848 ft 487 kts 93°
2026-05-07 22:03 -3.31769 -53.12923 36848 ft 487 kts 93°
2026-05-07 22:04 -3.32039 -53.06145 36848 ft 487 kts 93°
2026-05-07 22:04 -3.32309 -52.99363 36848 ft 487 kts 93°
2026-05-07 22:05 -3.32578 -52.92591 36848 ft 487 kts 93°
2026-05-07 22:05 -3.32847 -52.85818 36848 ft 487 kts 93°
2026-05-07 22:06 -3.33114 -52.79073 36848 ft 487 kts 93°
2026-05-07 22:06 -3.33381 -52.72308 36859 ft 487 kts 93°
2026-05-07 22:07 -3.33649 -52.65536 36866 ft 487 kts 93°
2026-05-07 22:07 -3.33916 -52.58764 36867 ft 487 kts 93°
2026-05-07 22:08 -3.34181 -52.52006 36869 ft 484 kts 93°
2026-05-07 22:08 -3.34445 -52.45291 36874 ft 480 kts 93°
2026-05-07 22:09 -3.34706 -52.38621 36875 ft 479 kts 93°
2026-05-07 22:09 -3.34968 -52.31944 36875 ft 480 kts 93°
2026-05-07 22:10 -3.35227 -52.25306 36875 ft 480 kts 93°
2026-05-07 22:10 -3.35485 -52.18677 36875 ft 480 kts 93°
2026-05-07 22:11 -3.35748 -52.11972 36875 ft 480 kts 93°
2026-05-07 22:11 -3.36009 -52.05282 36875 ft 480 kts 93°
2026-05-07 22:12 -3.36267 -51.98599 36874 ft 480 kts 93°
2026-05-07 22:12 -3.36523 -51.91960 36874 ft 480 kts 93°
2026-05-07 22:13 -3.36782 -51.85242 36873 ft 480 kts 93°
2026-05-07 22:13 -3.37036 -51.78608 36873 ft 480 kts 93°
2026-05-07 22:14 -3.37286 -51.71934 36873 ft 480 kts 93°
2026-05-07 22:14 -3.37536 -51.65250 36873 ft 480 kts 93°
2026-05-07 22:15 -3.37785 -51.58570 36872 ft 480 kts 93°
2026-05-07 22:15 -3.38034 -51.51892 36871 ft 480 kts 93°
2026-05-07 22:16 -3.38284 -51.45208 36872 ft 480 kts 93°
2026-05-07 22:16 -3.38536 -51.38535 36871 ft 480 kts 93°
2026-05-07 22:17 -3.38784 -51.31901 36871 ft 480 kts 93°
2026-05-07 22:17 -3.39032 -51.25228 36871 ft 480 kts 93°
2026-05-07 22:18 -3.39404 -51.15206 36871 ft 480 kts 93°
2026-05-07 22:19 -3.39651 -51.08527 36871 ft 480 kts 93°
2026-05-07 22:19 -3.39897 -51.01859 36871 ft 480 kts 93°
2026-05-07 22:20 -3.40142 -50.95213 36871 ft 480 kts 93°
2026-05-07 22:20 -3.40388 -50.88524 36869 ft 480 kts 93°
2026-05-07 22:21 -3.40634 -50.81846 36873 ft 480 kts 93°
2026-05-07 22:21 -3.40879 -50.75159 36873 ft 480 kts 93°
2026-05-07 22:22 -3.41123 -50.68482 36872 ft 480 kts 93°
2026-05-07 22:22 -3.41367 -50.61796 36873 ft 480 kts 93°
2026-05-07 22:23 -3.41608 -50.55154 36885 ft 480 kts 93°
2026-05-07 22:23 -3.41852 -50.48467 36908 ft 481 kts 93°
2026-05-07 22:24 -3.42095 -50.41779 36917 ft 481 kts 93°
2026-05-07 22:24 -3.42337 -50.35095 36924 ft 481 kts 93°
2026-05-07 22:25 -3.42578 -50.28422 36926 ft 481 kts 93°
2026-05-07 22:25 -3.42820 -50.21724 36925 ft 481 kts 93°
2026-05-07 22:26 -3.43061 -50.15031 36924 ft 481 kts 93°
2026-05-07 22:26 -3.43302 -50.08329 36929 ft 481 kts 93°
2026-05-07 22:27 -3.43542 -50.01635 36930 ft 481 kts 93°
2026-05-07 22:27 -3.43781 -49.94978 36928 ft 476 kts 94°
2026-05-07 22:28 -3.44018 -49.88371 36931 ft 474 kts 94°
2026-05-07 22:28 -3.44254 -49.81811 36932 ft 475 kts 94°
2026-05-07 22:29 -3.44489 -49.75193 36931 ft 475 kts 94°
2026-05-07 22:29 -3.44723 -49.68585 36930 ft 475 kts 94°
2026-05-07 22:30 -3.44956 -49.61985 36932 ft 474 kts 94°
2026-05-07 22:30 -3.45189 -49.55411 36931 ft 475 kts 94°
2026-05-07 22:31 -3.45431 -49.48790 36931 ft 475 kts 94°
2026-05-07 22:31 -3.45672 -49.42172 36930 ft 475 kts 94°
2026-05-07 22:32 -3.45910 -49.35604 36929 ft 474 kts 94°
2026-05-07 22:32 -3.46151 -49.28965 36928 ft 474 kts 94°
2026-05-07 22:33 -3.46388 -49.22409 36928 ft 475 kts 94°
2026-05-07 22:33 -3.46631 -49.15788 36925 ft 475 kts 94°
2026-05-07 22:34 -3.46871 -49.09176 36923 ft 475 kts 94°
2026-05-07 22:34 -3.47110 -49.02560 36923 ft 475 kts 94°
2026-05-07 22:35 -3.47349 -48.95943 36921 ft 475 kts 94°
2026-05-07 22:35 -3.47585 -48.89367 36919 ft 475 kts 94°
2026-05-07 22:36 -3.47823 -48.82742 36918 ft 476 kts 94°
2026-05-07 22:36 -3.48062 -48.76127 36918 ft 476 kts 94°
2026-05-07 22:37 -3.48300 -48.69505 36914 ft 476 kts 93°
2026-05-07 22:37 -3.48536 -48.62869 36913 ft 476 kts 93°
2026-05-07 22:38 -3.48768 -48.56309 36913 ft 475 kts 93°
2026-05-07 22:38 -3.49002 -48.49704 36912 ft 475 kts 93°
2026-05-07 22:39 -3.49234 -48.43091 36912 ft 475 kts 93°
2026-05-07 22:39 -3.49457 -48.36473 36909 ft 475 kts 93°
2026-05-07 22:40 -3.49678 -48.29853 36908 ft 475 kts 93°
2026-05-07 22:40 -3.49897 -48.23258 36909 ft 476 kts 93°
2026-05-07 22:41 -3.50080 -48.17717 36910 ft 475 kts 93°
2026-05-07 22:41 -3.50300 -48.11132 36905 ft 476 kts 93°
2026-05-07 22:42 -3.50526 -48.04505 36904 ft 475 kts 93°
2026-05-07 22:42 -3.50751 -47.97888 36914 ft 475 kts 93°
2026-05-07 22:43 -3.50960 -47.91267 36915 ft 475 kts 93°
2026-05-07 22:43 -3.51156 -47.84650 36915 ft 475 kts 93°
2026-05-07 22:44 -3.51352 -47.78037 36917 ft 476 kts 93°
2026-05-07 22:44 -3.51552 -47.71454 36918 ft 476 kts 93°
2026-05-07 22:45 -3.51749 -47.64838 36918 ft 476 kts 93°
2026-05-07 22:45 -3.51944 -47.58223 36918 ft 476 kts 93°
2026-05-07 22:46 -3.52139 -47.51595 36919 ft 476 kts 93°
2026-05-07 22:46 -3.52334 -47.44977 36919 ft 476 kts 93°
2026-05-07 22:47 -3.52558 -47.38363 36918 ft 476 kts 94°
2026-05-07 22:47 -3.52803 -47.31742 36919 ft 476 kts 94°
2026-05-07 22:48 -3.53045 -47.25126 36920 ft 477 kts 94°
2026-05-07 22:48 -3.53287 -47.18484 36918 ft 478 kts 94°
2026-05-07 22:49 -3.53526 -47.11879 36919 ft 477 kts 94°
2026-05-07 22:49 -3.53772 -47.05241 36918 ft 476 kts 94°
2026-05-07 22:50 -3.54014 -46.98619 36918 ft 477 kts 94°
2026-05-07 22:50 -3.54254 -46.91980 36916 ft 476 kts 93°
2026-05-07 22:51 -3.54492 -46.85345 36911 ft 477 kts 93°
2026-05-07 22:51 -3.54731 -46.78720 36906 ft 475 kts 93°
2026-05-07 22:52 -3.54957 -46.72099 36909 ft 476 kts 93°
2026-05-07 22:52 -3.55170 -46.65505 36909 ft 478 kts 93°
2026-05-07 22:53 -3.55384 -46.58846 36907 ft 478 kts 93°
2026-05-07 22:53 -3.55598 -46.52190 36906 ft 478 kts 93°
2026-05-07 22:54 -3.55812 -46.45528 36909 ft 478 kts 93°
2026-05-07 22:54 -3.56026 -46.38941 36907 ft 476 kts 93°
2026-05-07 22:55 -3.56241 -46.32317 36907 ft 476 kts 93°
2026-05-07 22:55 -3.56455 -46.25685 36906 ft 476 kts 93°
2026-05-07 22:56 -3.56668 -46.19057 36906 ft 476 kts 93°
2026-05-07 22:56 -3.56879 -46.12432 36907 ft 476 kts 93°
2026-05-07 22:57 -3.57091 -46.05807 36906 ft 476 kts 93°
2026-05-07 22:57 -3.57300 -45.99214 36906 ft 476 kts 93°
2026-05-07 22:58 -3.57511 -45.92589 36906 ft 476 kts 93°
2026-05-07 22:58 -3.57720 -45.85965 36906 ft 476 kts 93°
2026-05-07 22:59 -3.57930 -45.79343 36906 ft 476 kts 93°
2026-05-07 22:59 -3.58139 -45.72715 36905 ft 476 kts 93°
2026-05-07 23:00 -3.58347 -45.66089 36906 ft 476 kts 93°
2026-05-07 23:00 -3.58555 -45.59465 36906 ft 476 kts 93°
2026-05-07 23:01 -3.58762 -45.52828 36906 ft 476 kts 93°
2026-05-07 23:01 -3.58968 -45.46234 36905 ft 476 kts 93°
2026-05-07 23:02 -3.59177 -45.39607 36906 ft 476 kts 93°
2026-05-07 23:02 -3.59384 -45.32973 36906 ft 476 kts 93°
2026-05-07 23:03 -3.59589 -45.26337 36905 ft 476 kts 93°
2026-05-07 23:03 -3.59793 -45.19711 36906 ft 476 kts 93°
2026-05-07 23:04 -3.59997 -45.13072 36906 ft 476 kts 93°
2026-05-07 23:04 -3.60204 -45.06485 36906 ft 476 kts 93°
2026-05-07 23:05 -3.60420 -44.99839 36906 ft 476 kts 93°
2026-05-07 23:05 -3.60635 -44.93254 36912 ft 476 kts 94°
2026-05-07 23:06 -3.60848 -44.86633 36912 ft 476 kts 94°
2026-05-07 23:06 -3.61060 -44.79996 36912 ft 476 kts 94°
2026-05-07 23:07 -3.61272 -44.73370 36913 ft 476 kts 94°
2026-05-07 23:07 -3.61483 -44.66746 36914 ft 476 kts 94°
2026-05-07 23:08 -3.61684 -44.60123 36913 ft 476 kts 94°
2026-05-07 23:08 -3.61884 -44.53545 36913 ft 476 kts 94°
2026-05-07 23:09 -3.62164 -44.46899 36914 ft 477 kts 95°
2026-05-07 23:09 -3.62481 -44.40260 36913 ft 477 kts 95°
2026-05-07 23:10 -3.62788 -44.33627 36913 ft 477 kts 94°
2026-05-07 23:10 -3.63092 -44.27035 36913 ft 477 kts 94°
2026-05-07 23:11 -3.63379 -44.20390 36915 ft 477 kts 94°
2026-05-07 23:11 -3.63561 -44.13725 36914 ft 478 kts 93°
2026-05-07 23:12 -3.63752 -44.07077 36914 ft 478 kts 94°
2026-05-07 23:12 -3.63945 -44.00466 36916 ft 478 kts 94°
2026-05-07 23:13 -3.64143 -43.93799 36916 ft 478 kts 94°
2026-05-07 23:13 -3.64341 -43.87153 36915 ft 478 kts 94°
2026-05-07 23:14 -3.64536 -43.80483 36917 ft 478 kts 93°
2026-05-07 23:14 -3.64728 -43.73869 36918 ft 478 kts 93°
2026-05-07 23:15 -3.64922 -43.67212 36917 ft 478 kts 93°
2026-05-07 23:15 -3.65115 -43.60533 36917 ft 478 kts 93°
2026-05-07 23:16 -3.65308 -43.53866 36920 ft 479 kts 93°
2026-05-07 23:16 -3.65497 -43.47247 36921 ft 479 kts 93°
2026-05-07 23:17 -3.65688 -43.40582 36920 ft 479 kts 93°
2026-05-07 23:17 -3.65878 -43.33903 36922 ft 479 kts 93°
2026-05-07 23:18 -3.66070 -43.27234 36923 ft 479 kts 93°
2026-05-07 23:18 -3.66262 -43.20613 36923 ft 479 kts 93°
2026-05-07 23:19 -3.66453 -43.13940 36916 ft 480 kts 94°
2026-05-07 23:19 -3.66644 -43.07247 36915 ft 480 kts 94°
2026-05-07 23:20 -3.66833 -43.00570 36915 ft 480 kts 93°
2026-05-07 23:20 -3.67023 -42.93878 36916 ft 480 kts 93°
2026-05-07 23:21 -3.67210 -42.87246 36917 ft 480 kts 93°
2026-05-07 23:21 -3.67398 -42.80550 36917 ft 480 kts 93°
2026-05-07 23:22 -3.67586 -42.73867 36918 ft 480 kts 93°
2026-05-07 23:22 -3.67775 -42.67172 36918 ft 480 kts 93°
2026-05-07 23:23 -3.67963 -42.60492 36919 ft 480 kts 93°
2026-05-07 23:23 -3.68147 -42.53839 36921 ft 481 kts 93°
2026-05-07 23:24 -3.68332 -42.47146 36921 ft 481 kts 93°
2026-05-07 23:24 -3.68516 -42.40446 36922 ft 481 kts 93°
2026-05-07 23:25 -3.68667 -42.33741 36922 ft 481 kts 92°
2026-05-07 23:25 -3.68689 -42.27088 36924 ft 481 kts 92°
2026-05-07 23:26 -3.68729 -42.20380 36924 ft 481 kts 92°
2026-05-07 23:26 -3.68772 -42.13677 36925 ft 481 kts 92°
2026-05-07 23:27 -3.68877 -42.04748 36926 ft 481 kts 93°
2026-05-07 23:27 -3.69130 -41.96968 36927 ft 481 kts 93°
2026-05-07 23:28 -3.69332 -41.90271 36925 ft 481 kts 93°
2026-05-07 23:28 -3.69496 -41.84701 36925 ft 481 kts 93°
2026-05-07 23:29 -3.69692 -41.77986 36927 ft 481 kts 93°
2026-05-07 23:29 -3.69888 -41.71292 36927 ft 481 kts 93°
2026-05-07 23:30 -3.70083 -41.64639 36926 ft 481 kts 93°
2026-05-07 23:30 -3.70278 -41.57942 36927 ft 481 kts 93°
2026-05-07 23:31 -3.70471 -41.51243 36928 ft 481 kts 93°
2026-05-07 23:31 -3.70666 -41.44540 36926 ft 481 kts 93°
2026-05-07 23:32 -3.70859 -41.37848 36925 ft 481 kts 93°
2026-05-07 23:32 -3.71050 -41.31150 36927 ft 481 kts 93°
2026-05-07 23:33 -3.71239 -41.24490 36927 ft 481 kts 93°
2026-05-07 23:33 -3.71429 -41.17799 36925 ft 481 kts 93°
2026-05-07 23:34 -3.71612 -41.11103 36925 ft 481 kts 93°
2026-05-07 23:34 -3.71770 -41.04397 36926 ft 481 kts 93°
2026-05-07 23:35 -3.71928 -40.97704 36924 ft 481 kts 93°
2026-05-07 23:35 -3.72085 -40.91048 36923 ft 481 kts 93°
2026-05-07 23:36 -3.72248 -40.84349 36924 ft 481 kts 93°
2026-05-07 23:36 -3.72407 -40.77649 36924 ft 481 kts 93°
2026-05-07 23:37 -3.72564 -40.70940 36921 ft 481 kts 93°
2026-05-07 23:37 -3.72720 -40.64276 36922 ft 481 kts 93°
2026-05-07 23:38 -3.72876 -40.57563 36922 ft 481 kts 93°
2026-05-07 23:38 -3.73033 -40.50853 36919 ft 482 kts 93°
2026-05-07 23:39 -3.73188 -40.44185 36694 ft 484 kts 93°
2026-05-07 23:39 -3.73269 -40.40777 36154 ft 482 kts 93°
2026-05-07 23:39 -3.73348 -40.37449 35365 ft 484 kts 93°
2026-05-07 23:40 -3.73427 -40.34076 34587 ft 485 kts 92°
2026-05-07 23:40 -3.73505 -40.30696 33796 ft 487 kts 92°
2026-05-07 23:40 -3.73584 -40.27290 32982 ft 489 kts 92°
2026-05-07 23:40 -3.73662 -40.23882 32152 ft 490 kts 92°
2026-05-07 23:41 -3.73740 -40.20455 31295 ft 492 kts 92°
2026-05-07 23:41 -3.73819 -40.17024 30415 ft 494 kts 92°
2026-05-07 23:41 -3.73898 -40.13582 29515 ft 496 kts 92°
2026-05-07 23:41 -3.73977 -40.10118 28601 ft 498 kts 92°
2026-05-07 23:42 -3.74008 -40.06648 27662 ft 500 kts 90°
2026-05-07 23:42 -3.73971 -40.03211 26697 ft 501 kts 90°
2026-05-07 23:42 -3.73932 -39.99708 25749 ft 502 kts 90°
2026-05-07 23:42 -3.73899 -39.96217 24988 ft 498 kts 90°
2026-05-07 23:43 -3.73870 -39.92770 24233 ft 493 kts 90°
2026-05-07 23:43 -3.73842 -39.89347 23477 ft 489 kts 90°
2026-05-07 23:43 -3.73816 -39.85957 22724 ft 485 kts 89°
2026-05-07 23:43 -3.73791 -39.82599 21973 ft 480 kts 89°
2026-05-07 23:44 -3.73766 -39.79267 21224 ft 476 kts 89°
2026-05-07 23:44 -3.73740 -39.75967 20479 ft 470 kts 88°
2026-05-07 23:44 -3.73719 -39.72752 19758 ft 465 kts 88°
2026-05-07 23:44 -3.73696 -39.69501 19046 ft 459 kts 88°
2026-05-07 23:45 -3.73674 -39.66372 18339 ft 453 kts 88°
2026-05-07 23:45 -3.73651 -39.63228 17619 ft 448 kts 88°
2026-05-07 23:45 -3.73628 -39.60129 16903 ft 442 kts 89°
2026-05-07 23:45 -3.73609 -39.57065 16173 ft 438 kts 88°
2026-05-07 23:46 -3.73585 -39.54029 15455 ft 434 kts 88°
2026-05-07 23:46 -3.73562 -39.51029 14749 ft 429 kts 88°
2026-05-07 23:46 -3.73539 -39.48059 14108 ft 423 kts 88°
2026-05-07 23:46 -3.73517 -39.45143 13471 ft 417 kts 88°
2026-05-07 23:47 -3.73495 -39.42271 12902 ft 409 kts 88°
2026-05-07 23:47 -3.73473 -39.39438 12246 ft 404 kts 89°
2026-05-07 23:47 -3.73453 -39.36651 11759 ft 395 kts 89°
2026-05-07 23:47 -3.73431 -39.33956 11155 ft 390 kts 89°
2026-05-07 23:48 -3.73411 -39.31256 10664 ft 383 kts 89°
2026-05-07 23:48 -3.73389 -39.28630 10430 ft 369 kts 89°
2026-05-07 23:48 -3.73369 -39.26118 10309 ft 354 kts 89°
2026-05-07 23:48 -3.73351 -39.23698 10208 ft 340 kts 89°
2026-05-07 23:49 -3.73333 -39.21377 10116 ft 327 kts 89°
2026-05-07 23:49 -3.73316 -39.19145 10031 ft 314 kts 89°
2026-05-07 23:49 -3.73299 -39.16992 9952 ft 303 kts 89°
2026-05-07 23:49 -3.73283 -39.14933 9946 ft 289 kts 89°
2026-05-07 23:50 -3.73267 -39.12980 9859 ft 279 kts 89°
2026-05-07 23:50 -3.73252 -39.11048 9593 ft 276 kts 89°
2026-05-07 23:50 -3.73237 -39.09129 9289 ft 275 kts 89°
2026-05-07 23:50 -3.73222 -39.07220 8989 ft 273 kts 89°
2026-05-07 23:51 -3.73207 -39.05329 8698 ft 271 kts 89°
2026-05-07 23:51 -3.73191 -39.03447 8410 ft 269 kts 89°
2026-05-07 23:51 -3.73178 -39.01577 8104 ft 267 kts 89°
2026-05-07 23:51 -3.73163 -38.99718 7804 ft 266 kts 89°
2026-05-07 23:52 -3.73149 -38.97872 7505 ft 264 kts 89°
2026-05-07 23:52 -3.73134 -38.96055 7213 ft 262 kts 89°
2026-05-07 23:52 -3.73120 -38.94213 6914 ft 260 kts 89°
2026-05-07 23:52 -3.73105 -38.92434 6624 ft 258 kts 90°
2026-05-07 23:53 -3.73090 -38.90620 6325 ft 256 kts 90°
2026-05-07 23:53 -3.73075 -38.88862 6032 ft 255 kts 90°
2026-05-07 23:53 -3.73060 -38.87096 5728 ft 253 kts 90°
2026-05-07 23:53 -3.73046 -38.85339 5424 ft 251 kts 90°
2026-05-07 23:54 -3.73031 -38.83596 5123 ft 250 kts 90°
2026-05-07 23:54 -3.73016 -38.81858 4814 ft 248 kts 90°
2026-05-07 23:54 -3.73001 -38.80134 4503 ft 247 kts 90°
2026-05-07 23:54 -3.72987 -38.78416 4182 ft 246 kts 90°
2026-05-07 23:55 -3.72972 -38.76705 3862 ft 245 kts 90°
2026-05-07 23:55 -3.72958 -38.75009 3605 ft 241 kts 91°
2026-05-07 23:55 -3.72944 -38.73359 3477 ft 232 kts 91°
2026-05-07 23:55 -3.72931 -38.71783 3379 ft 222 kts 91°
2026-05-07 23:56 -3.73026 -38.70270 3229 ft 215 kts 102°
2026-05-07 23:56 -3.73414 -38.68849 2993 ft 208 kts 108°
2026-05-07 23:56 -3.73811 -38.67516 2729 ft 194 kts 107°
2026-05-07 23:56 -3.74162 -38.66262 2469 ft 182 kts 106°
2026-05-07 23:57 -3.74483 -38.65076 2235 ft 170 kts 104°
2026-05-07 23:57 -3.74783 -38.63954 1999 ft 165 kts 102°
2026-05-07 23:57 -3.75072 -38.62868 1805 ft 159 kts 102°
2026-05-07 23:57 -3.75353 -38.61813 1583 ft 154 kts 102°
2026-05-07 23:58 -3.75623 -38.60797 1375 ft 149 kts 102°
2026-05-07 23:58 -3.75883 -38.59816 1188 ft 147 kts 102°
2026-05-07 23:58 -3.76073 -38.59110 1047 ft 149 kts 102°